Location: Rounton
(54.4000°N, 1.3500°W)
Time: 14:21:49
(UTC+00:00)

Transit 2A Rocket - Pass Details

Date: 04 December 2021
Orbit: 584 x 918 km, 66.7° (Epoch: 21 January)

Event Time Altitude Azimuth Distance (km) Brightness Sun altitude
Rises 06:23:22 0° 161° (SSE) 3,349 8.9 -14.1°
Reaches altitude 10° 06:26:38 10° 141° (SE) 2,480 8.6 -13.6°
Maximum altitude 06:30:06 17° 104° (ESE) 2,107 8.5 -13.1°
Drops below altitude 10° 06:33:41 10° 67° (ENE) 2,583 8.4 -12.7°
Sets 06:37:10 0° 48° (NE) 3,555 8.8 -12.2°
